Location: Ash
(51.3500°N, 0.3000°E)
Time: 11:04:56
(UTC+00:00)

Daily predictions for brighter satellites

Satellite Brightness Start Highest point End
(mag) Time Altitude Azimuth Time Altitude Azimuth Time Altitude Azimuth
Feng Yun 1-1 Rocket 4.3 19:26:59 10° SSE 19:32:33 82° ENE 19:38:19 10° NNW
Cosmos 1486 Rocket 4.0 19:28:38 10° NNW 19:33:54 76° ENE 19:39:05 10° SSE
Cosmos 1782 Rocket 3.8 19:30:48 10° SSW 19:35:11 79° W 19:39:39 10° N
CZ-4 R/B 2.1 19:32:48 10° S 19:36:38 54° W 19:40:26 10° NNW
Cosmos 1536 Rocket 4.2 19:36:40 10° N 19:40:48 38° ENE 19:44:57 10° SE
SJ 16-02 3.4 19:38:15 10° NW 19:41:57 28° W 19:45:37 10° SSW
DELTA 2 DEB (DPAF) 4.0 19:41:25 10° NNE 19:45:38 62° ESE 19:49:49 10° S
Resurs 01 Rocket 1.6 19:41:54 10° SSE 19:46:18 86° ENE 19:50:46 10° NNW
CENTAUR R/B 4.0 19:40:53 10° NW 19:47:54 41° NNE 19:56:06 10° E
NOSS 3-1 (A) 3.4 19:46:51 10° SSW 19:51:35 45° ESE 19:57:14 10° NE
Cosmos 1300 Rocket 4.1 19:49:17 10° SSW 19:53:37 65° WNW 19:58:03 10° N
ERS-1 Rocket 4.0 19:51:28 10° ESE 19:55:43 29° ENE 20:00:00 10° N
Cosmos 1934 Rocket 4.2 19:53:39 10° N 19:59:41 54° ENE 20:05:47 10° SSE
USA 229 DEB 4.4 19:56:00 10° SSE 20:00:52 25° ESE 20:06:04 10° ENE
USA 229 4.4 19:56:07 10° SSE 20:00:58 25° ESE 20:06:09 10° ENE
Cosmos 2151 Rocket 3.9 19:58:59 10° SSE 20:03:11 47° E 20:07:27 10° NNE
USA 234 3.8 19:59:04 10° SE 20:05:25 53° SW 20:11:49 10° WNW
USA 281 3.3 19:59:55 10° SSE 20:06:30 89° ENE 20:13:08 10° NNW
ATLAS CENTAUR R/B 2.8 20:03:44 10° NNW 20:06:47 23° NNE 20:09:55 10° E
Cosmos 2227 Rocket 3.1 20:02:34 10° NNW 20:07:49 36° NE 20:12:21 13° ESE
NOSS 3-1 (C) 3.4 20:06:49 10° SW 20:11:54 78° NW 20:18:09 10° NE
Iridium 2 3.4 20:09:24 10° N 20:12:16 43° E 20:14:16 17° SSE
SL-4 R/B 1.5 20:11:41 10° W 20:15:21 87° S 20:17:57 17° E
Cosmos 371 Rocket 3.3 20:11:40 10° NNW 20:16:29 81° WSW 20:21:07 11° SSE
Landsat 4 4.1 20:17:01 18° SE 20:19:19 42° ENE 20:22:40 10° N
Cosmos 304 Rocket 3.7 20:15:31 10° NNW 20:20:20 90° WSW 20:24:31 13° SSE
MetOp-B 4.2 20:15:38 11° SSE 20:20:41 67° ENE 20:26:01 10° N
Cosmos 1777 Rocket 4.0 20:15:36 10° NNW 20:20:55 87° WSW 20:25:46 12° SSE
Cosmos 1697 Rocket 4.0 20:18:57 16° SE 20:21:02 19° E 20:24:53 10° ENE
COSMOS 2455 3.0 20:17:20 10° NW 20:23:22 65° NE 20:27:59 17° SE
Okean 2 Rocket 3.0 20:20:44 10° S 20:25:13 72° E 20:29:43 10° NNE
ATLAS 3B R/B 2.8 20:18:13 10° SW 20:25:22 81° SE 20:33:03 10° NE
NOSS 8 (E) 4.4 20:27:00 10° NW 20:30:01 68° NE 20:32:00 24° ESE
SPOT 5 3.1 20:26:04 13° SSE 20:30:51 76° ENE 20:36:05 10° NNW
IRS-1A Rocket 4.4 20:28:48 14° SSE 20:33:59 75° ENE 20:39:51 10° NNW
Cosmos 405 Rocket 3.8 20:33:26 22° ESE 20:34:10 23° E 20:37:10 10° NE
CZ-4C R/B 3.1 20:29:37 10° NW 20:36:20 66° NE 20:42:37 18° ESE
Cosmos 2297 Rocket 2.2 20:30:47 10° NNW 20:36:29 84° ENE 20:40:35 19° SSE
BlueWalker 3 2.3 20:34:17 10° SW 20:37:53 41° SSE 20:40:37 16° E
Spot 2 Rocket 3.8 20:36:25 21° SE 20:39:38 50° ENE 20:44:30 10° N
Cosmos 1354 Rocket 4.3 20:36:11 10° NNW 20:41:29 66° WSW 20:45:57 14° S
Terra 2.0 20:40:08 22° SE 20:43:01 55° ENE 20:47:39 10° N
Cosmos 1656 3.6 20:38:19 10° SSW 20:43:46 59° ESE 20:49:12 10° NE
Cosmos 1455 Rocket 3.7 20:46:45 26° SE 20:48:22 35° E 20:52:22 10° NNE
Okean 1 Rocket 3.0 20:44:07 10° S 20:48:33 78° E 20:53:03 10° NNE
ATLAS 5 CENTAUR R/B 2.5 20:45:30 10° WSW 20:48:48 40° NW 20:52:34 10° NE
Sich 1 Rocket 3.9 20:44:31 10° SSW 20:48:56 68° WNW 20:53:24 10° N
Cosmos 332 Rocket 3.8 20:44:08 10° NNW 20:49:01 80° ENE 20:51:53 25° SSE
Iridium 4 Rocket 3.7 20:44:04 10° S 20:49:37 80° E 20:55:30 10° N
USA 245 3.7 20:46:54 21° SSE 20:50:23 75° ENE 20:54:38 10° N
Cosmos 2219 3.9 20:45:57 10° NNW 20:51:19 42° NE 20:54:33 22° ESE
Okean-O 3.7 20:48:59 10° S 20:53:10 42° W 20:57:23 10° NNW
CZ-4C R/B 3.7 20:51:56 10° N 20:55:17 53° WNW 20:58:35 10° SSW
Cosmos 1437 Rocket 2.9 20:55:06 10° N 20:58:59 58° ENE 21:00:22 36° SE
Genesis I 4.4 20:55:48 10° WNW 20:59:01 30° WSW 21:00:43 20° SSW
Ariane Rocket 3.0 20:56:31 26° SSE 20:59:25 72° ENE 21:04:28 10° NNW
Cosmos 1763 Rocket 3.7 20:57:44 21° S 21:00:53 46° ESE 21:05:48 10° NE
Cosmos 2263 Rocket 3.1 20:57:56 10° NNW 21:03:08 37° NE 21:06:06 22° E
Cosmos 44 3.5 21:00:10 10° SSW 21:05:28 60° SE 21:10:42 10° NE
Okean O Rocket 4.2 21:05:17 10° SW 21:08:15 18° W 21:11:15 10° NW
Cosmos 990 Rocket 3.9 21:04:03 10° NNW 21:09:16 86° WSW 21:11:52 30° SSE
USA 267 3.6 21:04:08 10° ENE 21:10:37 66° NNW 21:17:06 10° W
ARGOS Delta rocket 4.2 21:08:36 30° SE 21:11:16 64° ENE 21:16:41 10° N
Cosmos 2173 Rocket 4.5 21:08:03 10° N 21:14:11 46° ENE 21:17:01 29° SE
NOSS 3-2 (A) 4.4 21:07:27 10° NW 21:14:15 55° NE 21:19:58 20° ESE
Cosmos 1605 Rocket 4.1 21:08:08 10° NNW 21:14:33 77° W 21:19:09 20° S
Aureole 1 Rocket 1.9 21:12:45 10° NNW 21:15:45 78° ENE 21:15:56 73° ESE
Cosmos 540 Rocket 3.6 21:18:45 34° SSE 21:20:35 50° ESE 21:25:32 10° NNE
Cosmos 1153 Rocket 4.4 21:16:17 10° N 21:22:38 79° E 21:25:55 30° SSE
Resurs 01 Rocket 4.4 21:21:17 10° WSW 21:23:23 13° W 21:25:29 10° WNW
Cosmos 2058 2.8 21:21:40 10° N 21:25:42 67° ENE 21:26:27 53° SE
MOS 1 Rocket 3.0 21:25:21 46° SE 21:26:32 71° ENE 21:30:57 10° N
Cosmos 1626 Rocket 4.0 21:24:01 10° N 21:28:18 47° ENE 21:29:06 42° ESE
Cosmos 372 Rocket 4.1 21:25:10 10° NNW 21:30:23 62° ENE 21:32:09 40° SE
Cosmos 468 Rocket 4.0 21:31:31 37° S 21:33:24 60° ESE 21:38:33 10° NNE
Cosmos 546 4.4 21:30:32 10° W 21:34:15 68° SSW 21:34:20 68° S
ERS-1 Rocket 3.7 21:31:22 23° SSW 21:34:16 49° W 21:39:10 10° NNW
Cosmos 1802 Rocket 4.4 21:30:38 10° N 21:36:44 50° ENE 21:38:59 35° SE
SPOT 3 Rocket 3.8 21:35:46 31° S 21:38:14 64° WSW 21:43:25 10° NNW
CENTAUR R/B 3.3 21:31:43 10° NW 21:39:44 80° NE 21:44:47 31° SE
NOSS 3-1 (A) 4.2 21:37:16 10° WSW 21:42:23 48° NNW 21:48:41 10° NE
Landsat 5 3.3 21:38:19 10° NNE 21:42:36 75° ESE 21:43:13 61° SSE
Cosmos 1869 4.2 21:43:56 33° ENE 21:43:56 33° ENE 21:46:45 10° NNE
Cosmos 841 Rocket 4.1 21:43:35 37° E 21:43:35 37° E 21:48:10 10° NE
Cosmos 2016 Rocket 4.4 21:38:07 10° N 21:44:00 47° ENE 21:45:55 36° ESE
ATLAS CENTAUR R/B 1.1 21:41:08 10° NW 21:44:54 70° SW 21:45:04 69° SSW
Cosmos 1844 Rocket 4.4 21:42:49 10° NNW 21:47:17 23° NE 21:50:31 15° E
Intercosmos 25 3.2 21:42:55 10° N 21:47:52 76° ENE 21:48:13 69° SE
Cosmos 1544 Rocket 3.6 21:49:27 55° E 21:49:30 55° E 21:53:45 10° NNE
USA 229 DEB 3.6 21:44:42 10° SW 21:50:56 85° NW 21:57:55 10° NE
USA 229 3.5 21:44:48 10° SW 21:51:03 85° NW 21:58:00 10° NE
Cosmos 2100 Rocket 4.0 21:45:26 10° N 21:51:50 83° ENE 21:54:16 41° SSE
Cosmos 2227 Rocket 2.7 21:46:35 10° NW 21:52:06 53° WSW 21:54:10 35° SSW
Cosmos 1727 Rocket 3.9 21:49:08 31° S 21:52:24 88° E 21:58:42 10° N
SL-4 R/B 3.1 21:50:41 10° W 21:52:47 26° WSW 21:52:47 26° WSW
H-2A R/B 3.5 21:54:16 29° ENE 21:54:16 29° ENE 21:57:26 10° N
Cosmos 1980 Rocket 2.4 21:55:14 45° ESE 21:55:32 45° ESE 22:00:54 10° NE
Cosmos 292 Rocket 3.7 21:51:13 10° NNW 21:55:59 78° WSW 21:56:52 58° S
Cosmos 1937 Rocket 3.4 21:57:14 10° NNW 22:02:35 85° WSW 22:03:46 56° SSE
Cosmos 1000 Rocket 4.3 22:01:36 43° S 22:03:44 77° E 22:09:53 10° NNE
Okean 1-7 Rocket 3.6 21:59:17 10° N 22:03:49 68° ENE 22:04:09 65° ESE
Cosmos 1697 Rocket 2.7 22:00:32 22° SSW 22:04:16 86° WNW 22:10:00 10° NNE
Cosmos 2123 Rocket 4.1 22:05:45 46° SE 22:07:18 58° E 22:13:31 10° NNE
MetOp-A 3.9 22:08:40 44° WSW 22:08:51 45° W 22:12:32 10° NNW
COSMOS 2455 4.1 22:03:44 10° NW 22:08:56 31° WSW 22:11:08 24° SSW
Cosmos 405 Rocket 4.2 22:07:46 24° WSW 22:09:15 32° WNW 22:12:38 10° N
CZ-2C R/B 4.2 22:06:29 10° NNE 22:10:47 46° E 22:10:47 46° E
Cosmos 1602 Rocket 3.4 22:06:52 10° N 22:11:14 74° ENE 22:11:18 74° E
Cosmos 1758 Rocket 3.4 22:07:25 10° N 22:11:54 83° E 22:12:06 80° SE
Cosmos 2228 3.1 22:14:51 62° ENE 22:14:51 62° ENE 22:18:36 10° NNE
Cosmos 1898 Rocket 3.9 22:10:07 10° NNW 22:15:13 52° WSW 22:16:18 44° SSW
BlueWalker 3 2.6 22:12:11 10° W 22:15:07 49° W 22:15:07 49° W
ATLAS 3B R/B 4.1 22:09:52 10° W 22:16:50 44° NNW 22:24:12 10° NE
ARIANE 5 R/B 2.6 22:17:17 69° E 22:17:27 70° ENE 22:21:56 10° N
Cosmos 2297 Rocket 4.2 22:15:56 10° WNW 22:19:49 19° W 22:22:24 14° SW
Terra 3.7 22:18:51 17° SW 22:20:57 22° W 22:24:40 10° NW
CZ-4C R/B 3.5 22:18:06 10° NW 22:24:55 46° WSW 22:27:43 35° SSW
Cosmos 2369 3.6 22:27:49 61° SE 22:28:06 62° ESE 22:33:42 10° NE
Meteor 2-1 Rocket 4.4 22:28:09 42° SW 22:30:00 67° WNW 22:35:31 10° N
Cosmos 1825 Rocket 3.9 22:26:01 10° N 22:30:02 55° ENE 22:30:02 55° ENE
Cosmos 1666 4.2 22:27:13 10° N 22:29:23 27° NE 22:29:23 27° NE
NOSS 3-2 (C) 4.1 22:23:28 10° NW 22:30:33 69° NE 22:34:32 34° ESE
Lacrosse 4 Rocket 3.7 22:33:41 14° ENE 22:33:41 14° ENE 22:34:23 10° NE
SL-08 R/B 4.4 22:24:43 10° N 22:31:07 83° E 22:32:34 56° SSE
Meteor 2-8 Rocket 4.4 22:26:06 10° N 22:32:19 90° W 22:33:42 57° S
H-2A R/B 4.5 22:30:13 10° ENE 22:30:48 12° ENE 22:30:48 12° ENE
Cosmos 1725 Rocket 3.9 22:27:29 10° N 22:33:43 84° W 22:35:10 55° S
ATLAS 5 CENTAUR R/B 4.2 22:31:09 10° NW 22:33:47 17° N 22:36:45 10° NE
Cosmos 2233 Rocket 4.0 22:27:55 10° N 22:34:05 71° ENE 22:35:19 56° SE
Cosmos 1459 Rocket 4.3 22:28:48 10° NNW 22:34:42 57° W 22:36:35 41° SW
Cosmos 2219 3.8 22:30:12 10° NW 22:35:30 43° WSW 22:36:27 39° SW
ALOS 2 3.5 22:35:59 37° ENE 22:35:59 37° ENE 22:39:57 10° N
Cosmos 2061 Rocket 4.0 22:34:06 10° N 22:40:35 85° E 22:42:00 58° SSE
Cosmos 1862 3.8 22:37:28 10° N 22:40:37 56° N 22:40:37 56° N
Cosmos 2263 Rocket 2.5 22:41:49 10° NW 22:47:14 50° WSW 22:47:47 49° SW
Cosmos 2360 Rocket 4.1 22:51:06 15° E 22:51:06 15° E 22:53:15 10° ENE
Cosmos 1271 Rocket 3.8 22:46:27 10° N 22:49:07 39° NNE 22:49:07 39° NNE
Cosmos 1500 4.5 22:47:56 10° N 22:50:09 36° N 22:50:09 36° N
USA 267 3.9 22:46:52 10° ENE 22:53:14 55° N 22:59:36 10° WNW
Cosmos 2082 4.2 22:48:29 10° NW 22:53:52 46° WSW 22:54:20 45° SW
Cosmos 1606 4.1 22:57:44 34° NW 22:57:44 34° NW 23:00:33 10° N
Lacrosse 5 4.2 23:05:57 12° ENE 23:05:57 12° ENE 23:06:21 10° ENE
Cosmos 2333 Rocket 4.1 23:03:47 17° E 23:03:47 17° E 23:06:16 10° ENE
Cosmos 2322 Rocket 3.6 23:03:59 24° E 23:03:59 24° E 23:07:26 10° NE
Cosmos 2219 Rocket 4.5 23:05:42 10° E 23:05:42 10° E 23:05:56 10° E
NOSS 3-2 (A) 4.2 22:58:14 10° NW 23:05:27 59° SW 23:07:20 49° S
Spot 4 3.8 23:09:20 78° WNW 23:09:20 78° WNW 23:13:55 10° NNW
Cosmos 1726 Rocket 4.1 23:10:52 53° NNE 23:10:52 53° NNE 23:14:15 10° NNE
Meteor 2-19 Rocket 4.3 23:16:07 67° SSW 23:16:59 85° W 23:23:08 10° N
Cosmos 1953 Rocket 4.0 23:15:35 10° NNW 23:19:07 57° NNW 23:19:07 57° NNW
SL-16 R/B 2.5 23:22:57 51° E 23:22:57 51° E 23:27:54 10° NE
Cosmos 1844 3.8 23:17:01 10° NNW 23:22:48 71° ENE 23:23:28 64° E
H-2A R/B 4.2 23:30:18 23° WNW 23:30:18 23° WNW 23:32:24 10° NW
CENTAUR R/B 3.9 23:22:42 10° NW 23:30:14 38° WSW 23:31:55 36° SW
USA 238 DEB 3.9 23:23:08 10° NW 23:30:24 83° NE 23:32:58 47° SE
USA 238 3.9 23:23:13 10° NW 23:30:30 83° NE 23:33:05 46° SE
Cosmos 1125 Rocket 3.4 23:26:39 10° NNW 23:31:49 83° NNE 23:31:49 83° NNE
Cosmos 1844 Rocket 2.5 23:26:20 10° NNW 23:31:59 88° ENE 23:32:08 85° ESE
Cosmos 1812 4.5 23:37:39 27° NNE 23:37:39 27° NNE 23:39:28 10° NNE
Cosmos 1980 Rocket 3.3 23:36:55 25° W 23:39:38 40° NW 23:44:59 10° NNE
PSLV R/B 4.4 23:35:19 10° NNE 23:39:04 49° ENE 23:39:04 49° ENE
Meteor 2-14 Rocket 4.4 23:41:04 65° ESE 23:41:32 67° E 23:47:38 10° NNE
Cosmos 1072 Rocket 4.4 23:35:16 10° N 23:41:43 80° E 23:42:32 68° SE
Cosmos 2346 Rocket 4.3 23:42:06 73° S 23:42:45 89° ESE 23:49:03 10° N
Cosmos 2151 4.1 23:39:55 10° NNW 23:42:57 39° NW 23:42:57 39° NW
Cosmos 2278 3.6 23:44:40 81° WSW 23:44:55 85° WNW 23:50:39 10° NNE
Timation 2 Rocket 4.0 23:40:33 10° NNW 23:47:14 83° NE 23:48:20 64° SE
